DW9542 Weather Reports


time (UTC)temp
C
wind
direction
speed
KPH
gust
KPH
rain 1hr
cm
rain 24hr
cm
rain mn
cm
humidity
%
barometer
mb
20260507130504 8 68 0.0 0.0 0.03 1.14 0.58 95 1007.3
20260507130038 8 207 0.0 0.0 0.05 1.14 0.58 95 1007.3
20260507125601 8 182 0.0 0.0 0.05 1.14 0.58 95 1007.1
20260507125034 8 259 0.0 0.0 0.08 1.14 0.58 95 1007.3
20260507124551 8 281 0.0 0.0 0.10 1.14 0.58 95 1007.2
20260507124034 8 332 0.0 0.0 0.10 1.14 0.58 95 1006.9
20260507123530 8 53 0.0 1.6 0.10 1.14 0.58 95 1006.7
20260507123109 8 141 0.0 0.0 0.10 1.14 0.58 95 1006.9
20260507122508 8 73 0.0 0.0 0.13 1.14 0.58 95 1007.0
20260507122033 8 81 0.0 1.6 0.10 1.12 0.56 95 1007.1
20260507121515 8 49 0.0 1.6 0.13 1.12 0.56 95 1007.2
20260507121004 8 267 0.0 3.2 0.13 1.12 0.56 96 1006.9
20260507120551 8 49 0.0 3.2 0.13 1.12 0.56 95 1006.9
20260507120010 8 184 0.0 0.0 0.10 1.09 0.53 96 1006.9
20260507115555 8 338 0.0 0.0 0.10 1.09 0.53 96 1007.6
20260507115004 8 44 0.0 1.6 0.08 1.07 0.51 96 1007.5
20260507114529 8 277 0.0 1.6 0.08 1.04 0.48 96 1007.3
20260507114054 8 283 0.0 4.8 0.08 1.04 0.48 96 1007.1
20260507113509 8 31 0.0 16.1 0.08 1.04 0.48 96 1006.5
20260507113044 8 115 0.0 16.1 0.08 1.04 0.48 96 1006.2
20260507112530 8 27 0.0 1.6 0.05 1.02 0.46 96 1006.2
20260507112050 8 301 0.0 1.6 0.05 1.02 0.46 96 1006.4
20260507111520 9 62 0.0 1.6 0.05 0.99 0.43 96 1006.5
20260507111053 9 25 0.0 0.0 0.10 0.99 0.43 96 1006.6
20260507110510 9 333 0.0 0.0 0.23 0.99 0.43 96 1006.8
20260507110039 9 212 0.0 0.0 0.25 0.99 0.43 96 1006.6
20260507105604 9 73 0.0 0.0 0.28 0.99 0.43 96 1006.5
20260507105033 9 84 0.0 0.0 0.33 0.99 0.43 96 1006.3
20260507104507 9 67 0.0 0.0 0.33 0.97 0.41 96 1006.4
20260507104004 9 68 0.0 0.0 0.38 0.97 0.41 96 1006.3
20260507103541 10 72 0.0 0.0 0.41 0.97 0.41 96 1006.2
20260507103025 10 262 0.0 0.0 0.41 0.97 0.41 96 1006.0
20260507102503 10 191 0.0 0.0 0.41 0.97 0.41 96 1006.1
20260507102028 10 148 0.0 6.4 0.41 0.97 0.41 96 1005.8
20260507101551 10 332 0.0 14.5 0.38 0.94 0.38 96 1005.8
20260507101009 10 56 1.6 14.5 0.30 0.86 0.30 96 1005.4
20260507100530 10 260 0.0 1.6 0.20 0.76 0.20 96 1006.0
20260507100100 10 341 0.0 4.8 0.18 0.71 0.18 96 1005.6
20260507095514 11 56 0.0 9.7 0.15 0.71 0.15 96 1005.1
20260507095056 11 16 0.0 9.7 0.10 0.66 0.10 96 1005.6
20260507094513 11 266 0.0 0.0 0.08 0.64 0.08 96 1005.5
20260507094059 11 29 0.0 0.0 0.03 0.58 0.03 96 1005.2
20260507093517 11 257 0.0 0.0 0.00 0.56 0.00 96 1005.2
20260507093050 11 272 0.0 0.0 0.00 0.56 0.00 96 1005.1
20260507092534 11 221 0.0 0.0 0.00 0.56 0.00 96 1005.5
20260507092023 11 233 0.0 0.0 0.00 0.56 0.00 96 1005.5
20260507091512 11 258 0.0 0.0 0.00 0.56 0.00 96 1005.8
20260507091037 11 236 0.0 0.0 0.00 0.56 0.00 96 1005.8
20260507090557 11 183 0.0 3.2 0.00 0.56 0.00 96 1005.4
20260507090009 11 211 0.0 1.6 0.00 0.56 0.00 96 1006.0
20260507085541 11 250 0.0 4.8 0.00 0.56 0.00 96 1005.8
20260507085007 11 229 0.0 6.4 0.00 0.56 0.00 96 1005.3
20260507084552 11 203 0.0 11.3 0.00 0.56 0.00 96 1005.4
20260507084108 11 212 0.0 14.5 0.00 0.56 0.00 96 1005.2
20260507083542 11 228 6.4 14.5 0.00 0.56 0.00 96 1005.2
20260507083003 11 220 8.0 16.1 0.00 0.56 0.00 96 1005.1
20260507082526 11 217 3.2 16.1 0.00 0.56 0.00 96 1005.0
20260507082053 11 214 9.7 16.1 0.00 0.56 0.00 96 1005.1
20260507081530 11 220 8.0 16.1 0.00 0.56 0.00 96 1005.1
20260507081054 11 228 3.2 16.1 0.00 0.56 0.00 96 1005.1
20260507080542 12 207 1.6 9.7 0.00 0.56 0.00 96 1005.2
20260507080038 11 222 0.0 8.0 0.00 0.56 0.00 96 1005.2
20260507075521 12 212 1.6 8.0 0.00 0.56 0.00 96 1005.0
20260507075014 12 212 0.0 6.4 0.00 0.56 0.00 96 1005.0
20260507074601 12 208 0.0 9.7 0.00 0.56 0.00 96 1005.3
20260507074018 11 215 0.0 12.9 0.00 0.56 0.00 96 1005.5
20260507073502 11 247 0.0 12.9 0.00 0.56 0.00 96 1005.6
20260507073042 11 231 1.6 12.9 0.00 0.56 0.00 96 1005.5
20260507072522 12 234 0.0 11.3 0.00 0.56 0.00 96 1005.4
20260507072106 12 199 0.0 9.7 0.00 0.56 0.00 96 1005.7
20260507071550 12 217 0.0 14.5 0.00 0.56 0.00 96 1005.8
20260507071031 12 214 0.0 9.7 0.00 0.56 0.00 96 1005.9
20260507070509 12 217 0.0 12.9 0.00 0.56 0.00 96 1005.7
20260507070033 12 231 1.6 12.9 0.00 0.56 0.00 96 1005.6
20260507065514 12 223 0.0 12.9 0.00 0.56 0.00 96 1005.5
20260507065048 12 218 1.6 14.5 0.00 0.56 0.00 96 1005.5
20260507064548 12 215 3.2 14.5 0.00 0.56 0.00 96 1005.6
20260507064013 12 220 1.6 12.9 0.00 0.56 0.00 96 1005.7
20260507063547 12 208 1.6 12.9 0.00 0.56 0.00 96 1005.5
20260507063009 12 235 1.6 14.5 0.00 0.56 0.00 96 1005.6
20260507062553 12 222 3.2 16.1 0.00 0.56 0.00 96 1005.6
20260507062031 12 240 3.2 19.3 0.00 0.56 0.00 96 1005.6
20260507061516 12 246 8.0 19.3 0.00 0.56 0.00 96 1005.6
20260507061056 12 243 4.8 14.5 0.00 0.56 0.00 96 1005.6
20260507060544 12 221 3.2 17.7 0.00 0.56 0.00 96 1005.8
20260507060018 12 220 3.2 19.3 0.00 0.56 0.00 96 1005.9
20260507055553 12 224 0.0 19.3 0.00 0.56 0.00 96 1005.8
20260507055007 12 234 1.6 19.3 0.00 0.56 0.00 96 1006.1
20260507054534 12 259 6.4 19.3 0.00 0.56 0.00 96 1006.0
20260507054010 12 220 3.2 17.7 0.00 0.56 0.00 96 1006.2
20260507053537 12 224 3.2 19.3 0.00 0.56 0.00 96 1006.4
20260507053001 12 191 4.8 19.3 0.00 0.56 0.00 96 1006.3
20260507052538 12 226 3.2 19.3 0.00 0.56 0.00 96 1006.5
20260507052015 12 252 8.0 20.9 0.00 0.56 0.00 96 1006.6
20260507051507 12 219 6.4 22.5 0.00 0.56 0.00 96 1006.5
20260507051045 12 217 4.8 22.5 0.00 0.56 0.00 96 1006.6
20260507050507 12 218 9.7 24.1 0.00 0.56 0.00 96 1006.5
20260507050056 12 229 11.3 24.1 0.00 0.56 0.00 96 1006.6
20260507045536 12 219 6.4 22.5 0.00 0.56 0.00 96 1006.6
20260507045019 12 223 9.7 25.7 0.00 0.56 0.00 96 1006.7
20260507044542 12 228 12.9 25.7 0.00 0.56 0.00 96 1006.5
20260507044105 12 236 12.9 24.1 0.00 0.56 0.00 96 1006.6
20260507043523 12 242 8.0 24.1 0.00 0.56 0.00 95 1006.8
20260507043056 12 250 8.0 22.5 0.00 0.56 0.00 95 1006.9
20260507042531 12 225 6.4 25.7 0.00 0.56 0.00 95 1006.9
20260507042001 12 233 6.4 25.7 0.00 0.56 0.00 95 1007.0
20260507041535 12 215 6.4 24.1 0.00 0.56 0.00 95 1007.0
20260507041032 12 226 4.8 19.3 0.00 0.56 0.00 95 1007.0
20260507040554 12 228 1.6 27.4 0.00 0.56 0.00 95 1006.8
20260507040018 12 224 9.7 37.0 0.00 0.56 0.00 95 1006.7
20260507035507 12 229 20.9 37.0 0.00 0.56 0.56 95 1006.8
20260507035058 12 230 9.7 33.8 0.00 0.56 0.56 95 1006.9
20260507034517 12 245 14.5 33.8 0.00 0.56 0.56 95 1007.0
20260507034100 12 238 20.9 33.8 0.00 0.56 0.56 95 1006.9
20260507033538 12 208 19.3 32.2 0.00 0.56 0.56 95 1007.0
20260507033058 12 223 16.1 32.2 0.00 0.56 0.56 95 1006.7
20260507032521 12 225 19.3 32.2 0.00 0.56 0.56 95 1006.7
20260507032012 12 222 19.3 32.2 0.00 0.56 0.56 95 1006.8
20260507031544 12 217 20.9 30.6 0.00 0.56 0.56 95 1006.7
20260507031038 12 226 16.1 30.6 0.00 0.56 0.56 95 1006.7
20260507030519 12 221 19.3 30.6 0.00 0.56 0.56 95 1006.7
20260507030028 12 215 16.1 33.8 0.00 0.56 0.56 95 1006.9
20260507025508 12 231 11.3 33.8 0.00 0.56 0.56 95 1007.1
20260507025039 12 229 22.5 33.8 0.00 0.56 0.56 95 1007.2
20260507024551 13 218 20.9 35.4 0.00 0.56 0.56 95 1007.2
20260507024038 13 227 22.5 35.4 0.00 0.56 0.56 95 1007.5
20260507023524 12 229 22.5 35.4 0.00 0.56 0.56 95 1007.5
20260507023056 13 224 22.5 37.0 0.00 0.56 0.56 95 1007.5
20260507022542 13 210 24.1 38.6 0.00 0.56 0.56 95 1007.5
20260507022031 13 229 22.5 38.6 0.00 0.56 0.56 95 1007.5
20260507021512 13 206 25.7 38.6 0.00 0.56 0.56 95 1007.5
20260507021055 13 229 25.7 40.2 0.00 0.56 0.56 95 1007.5
20260507020518 13 234 27.4 40.2 0.00 0.56 0.56 95 1007.6
20260507020108 13 226 27.4 37.0 0.00 0.56 0.56 95 1007.6
20260507015526 12 218 27.4 41.8 0.03 0.56 0.56 95 1007.7
20260507015005 13 227 29.0 40.2 0.05 0.56 0.56 95 1007.9
20260507014528 13 215 29.0 40.2 0.10 0.56 0.56 95 1007.9
20260507014009 13 221 29.0 40.2 0.13 0.56 0.56 95 1007.9
20260507013559 13 215 32.2 41.8 0.18 0.56 0.56 95 1007.9
20260507013048 13 212 30.6 41.8 0.20 0.56 0.56 95 1007.9
20260507012515 13 213 30.6 43.5 0.20 0.56 0.56 95 1007.9
20260507012004 13 200 32.2 48.3 0.23 0.56 0.56 95 1008.0
20260507011531 13 226 29.0 48.3 0.23 0.56 0.56 95 1008.0
20260507011051 13 229 32.2 46.7 0.23 0.56 0.56 95 1008.1
20260507010532 13 222 33.8 46.7 0.23 0.56 0.56 95 1008.0
20260507010013 13 228 30.6 45.1 0.25 0.56 0.56 95 1008.0
20260507005552 13 211 24.1 37.0 0.23 0.53 0.53 95 1008.0
20260507005006 13 214 20.9 35.4 0.20 0.51 0.51 95 1007.8
20260507004526 13 229 19.3 35.4 0.15 0.46 0.46 95 1007.7
20260507004055 13 212 17.7 33.8 0.13 0.43 0.43 95 1007.6
20260507003528 13 219 20.9 35.4 0.10 0.38 0.38 95 1007.7
20260507003006 13 214 20.9 32.2 0.13 0.36 0.36 95 1007.8
20260507002526 13 207 19.3 35.4 0.30 0.36 0.36 95 1007.9
20260507002021 13 221 20.9 35.4 0.30 0.33 0.33 95 1008.1
20260507001516 13 224 16.1 33.8 0.33 0.33 0.33 95 1008.1
20260507001105 12 231 19.3 33.8 0.33 0.33 0.33 94 1008.2
20260507000518 12 205 14.5 33.8 0.33 0.33 0.33 94 1008.2
20260507000004 12 209 20.9 33.8 0.30 0.30 0.30 94 1008.5
20260506235548 12 215 17.7 38.6 0.30 0.30 0.30 94 1008.5
20260506235031 13 212 20.9 38.6 0.30 0.30 0.30 94 1008.5
20260506234530 13 221 20.9 37.0 0.30 0.30 0.30 94 1008.4
20260506234012 13 224 20.9 32.2 0.28 0.28 0.28 94 1008.5
20260506233510 13 219 19.3 35.4 0.28 0.28 0.28 93 1008.6
20260506233047 13 207 22.5 35.4 0.23 0.23 0.23 93 1008.6
20260506232535 13 196 22.5 35.4 0.05 0.05 0.05 92 1008.7
20260506232027 13 221 17.7 35.4 0.03 0.03 0.03 91 1008.6
20260506231609 13 217 20.9 35.4 0.00 0.00 0.00 91 1008.7
20260506231013 13 207 19.3 32.2 0.00 0.00 0.00 91 1008.7
20260506230550 13 207 17.7 29.0 0.00 0.00 0.00 91 1008.7
20260506230002 13 213 16.1 27.4 0.00 0.00 0.00 90 1008.7
20260506225535 13 205 17.7 32.2 0.00 0.00 0.00 90 1008.8
20260506225105 13 221 20.9 32.2 0.00 0.00 0.00 90 1008.8
20260506224540 14 231 19.3 32.2 0.00 0.00 0.00 90 1008.8
20260506224012 13 239 19.3 30.6 0.00 0.00 0.00 90 1008.9
20260506223533 13 230 17.7 35.4 0.00 0.00 0.00 90 1008.8
20260506223100 13 210 17.7 37.0 0.00 0.00 0.00 90 1008.8
20260506222530 13 191 17.7 37.0 0.00 0.00 0.00 90 1008.8
20260506222024 13 206 17.7 33.8 0.00 0.00 0.00 90 1008.9
20260506221600 13 207 19.3 32.2 0.00 0.00 0.00 90 1009.1
20260506221019 13 238 20.9 32.2 0.00 0.00 0.00 90 1009.0
20260506220603 14 210 19.3 33.8 0.00 0.00 0.00 90 1009.0
20260506220040 14 226 19.3 33.8 0.00 0.00 0.00 90 1008.9
20260506215519 13 221 16.1 30.6 0.00 0.00 0.00 90 1008.8
20260506215008 13 221 16.1 30.6 0.00 0.00 0.00 90 1009.0
20260506214541 13 224 17.7 33.8 0.00 0.00 0.00 90 1009.1
20260506214013 13 200 17.7 33.8 0.00 0.00 0.00 90 1009.2
20260506213600 13 246 19.3 32.2 0.00 0.00 0.00 90 1009.1
20260506213027 13 229 17.7 32.2 0.00 0.00 0.00 90 1009.2
20260506212503 14 213 17.7 32.2 0.00 0.00 0.00 90 1009.3
20260506212053 14 208 16.1 37.0 0.00 0.00 0.00 90 1009.2
20260506211539 14 222 19.3 37.0 0.00 0.00 0.00 90 1009.2
20260506211029 14 217 16.1 33.8 0.00 0.00 0.00 90 1009.2
20260506210514 13 229 19.3 35.4 0.00 0.00 0.00 90 1009.2
20260506210012 13 219 19.3 40.2 0.00 0.00 0.00 90 1009.3
20260506205552 14 217 20.9 40.2 0.00 0.00 0.00 90 1009.4
20260506205006 14 221 22.5 35.4 0.00 0.00 0.00 89 1009.5
20260506204608 14 224 20.9 35.4 0.00 0.00 0.00 90 1009.5
20260506204040 14 199 19.3 33.8 0.00 0.00 0.00 90 1009.5
20260506203510 14 210 22.5 33.8 0.00 0.00 0.00 90 1009.7
20260506203053 14 219 19.3 32.2 0.00 0.00 0.00 90 1009.7
20260506202518 14 191 19.3 27.4 0.00 0.00 0.00 90 1009.6
20260506202059 14 234 16.1 29.0 0.00 0.00 0.00 90 1009.6
20260506201548 14 211 20.9 35.4 0.00 0.00 0.00 89 1009.7
20260506201019 14 216 20.9 35.4 0.00 0.00 0.00 89 1009.9
20260506200514 14 205 20.9 32.2 0.00 0.00 0.00 89 1010.0
20260506200037 14 224 20.9 32.2 0.00 0.00 0.00 89 1010.0
20260506195515 14 207 19.3 30.6 0.00 0.00 0.00 89 1009.8
20260506195053 14 214 17.7 35.4 0.00 0.00 0.00 89 1009.9
20260506194533 14 229 20.9 30.6 0.00 0.00 0.00 89 1009.9
20260506194004 14 204 20.9 30.6 0.00 0.00 0.00 89 1010.0
20260506193545 14 222 17.7 27.4 0.00 0.00 0.00 89 1009.9
20260506193118 14 227 17.7 32.2 0.00 0.00 0.00 89 1009.8
20260506192528 14 224 22.5 37.0 0.00 0.00 0.00 89 1010.0
20260506192002 15 210 25.7 37.0 0.00 0.00 0.00 88 1010.1
20260506191549 15 214 19.3 32.2 0.00 0.00 0.00 88 1010.1
20260506191030 15 207 22.5 35.4 0.00 0.00 0.00 88 1010.3
20260506190501 15 219 22.5 38.6 0.00 0.00 0.00 88 1010.3
20260506190036 15 229 22.5 41.8 0.00 0.00 0.00 88 1010.3
20260506185506 15 219 22.5 41.8 0.00 0.00 0.00 88 1010.5
20260506185040 15 221 22.5 35.4 0.00 0.00 0.00 88 1010.6
20260506184518 15 206 24.1 33.8 0.00 0.00 0.00 88 1010.8
20260506184029 15 224 20.9 35.4 0.00 0.00 0.00 88 1010.7
20260506183507 15 217 24.1 35.4 0.00 0.00 0.00 88 1010.9
20260506183045 15 212 24.1 33.8 0.00 0.00 0.00 88 1011.1
20260506182527 15 219 24.1 40.2 0.00 0.00 0.00 87 1011.1
20260506182104 15 210 25.7 40.2 0.00 0.00 0.00 87 1011.2
20260506181535 15 235 25.7 40.2 0.00 0.00 0.00 87 1011.4
20260506181053 15 217 24.1 33.8 0.00 0.00 0.00 88 1011.4
20260506180516 15 229 22.5 37.0 0.00 0.00 0.00 88 1011.4
20260506180045 15 202 22.5 33.8 0.00 0.00 0.00 88 1011.3
20260506175518 15 217 22.5 40.2 0.00 0.00 0.00 88 1011.4
20260506175005 15 208 22.5 38.6 0.00 0.00 0.00 88 1011.3
20260506174559 15 214 22.5 33.8 0.00 0.00 0.00 88 1011.4
20260506174011 15 231 22.5 35.4 0.00 0.00 0.00 89 1011.4
20260506173549 15 215 20.9 35.4 0.00 0.00 0.00 88 1011.6
20260506173045 15 217 22.5 37.0 0.00 0.00 0.00 89 1011.7
20260506172606 14 226 22.5 38.6 0.00 0.00 0.00 89 1011.9
20260506172017 15 211 20.9 38.6 0.00 0.00 0.00 89 1011.8
20260506171609 14 217 22.5 37.0 0.00 0.00 0.00 89 1011.8
20260506171035 15 232 24.1 37.0 0.00 0.00 0.00 88 1012.0
20260506170554 15 203 20.9 35.4 0.00 0.00 0.00 88 1011.9
20260506170005 15 218 24.1 35.4 0.00 0.00 0.00 88 1012.0
20260506165543 15 208 22.5 35.4 0.00 0.00 0.00 89 1012.0
20260506165021 15 221 20.9 35.4 0.00 0.00 0.00 88 1012.2
20260506164556 15 231 22.5 35.4 0.00 0.00 0.00 88 1012.1
20260506164044 15 231 22.5 35.4 0.00 0.00 0.00 88 1012.2
20260506163517 15 228 20.9 35.4 0.00 0.00 0.00 88 1012.4
20260506163040 15 214 19.3 37.0 0.00 0.00 0.00 88 1012.3
20260506162521 15 218 20.9 37.0 0.00 0.00 0.00 88 1012.5
20260506162053 15 219 20.9 33.8 0.00 0.00 0.00 88 1012.5
20260506161536 15 216 20.9 38.6 0.00 0.00 0.00 89 1012.7
20260506161052 15 209 20.9 38.6 0.00 0.00 0.00 88 1012.7
20260506160531 15 197 22.5 35.4 0.00 0.00 0.00 88 1012.8
20260506160059 15 219 24.1 35.4 0.00 0.00 0.00 88 1012.7
20260506155606 15 224 22.5 33.8 0.00 0.00 0.00 88 1013.1
20260506155016 15 229 20.9 38.6 0.00 0.00 0.00 88 1013.2
20260506154537 15 218 24.1 37.0 0.00 0.00 0.00 88 1013.1
20260506154105 15 229 22.5 35.4 0.00 0.00 0.00 88 1013.1
20260506153527 15 211 22.5 38.6 0.00 0.00 0.00 88 1013.1
20260506153048 15 210 25.7 38.6 0.00 0.00 0.00 88 1013.0
20260506152520 15 228 24.1 38.6 0.00 0.00 0.00 88 1013.0
20260506152037 15 209 24.1 38.6 0.00 0.00 0.00 88 1012.9
20260506151558 15 209 25.7 38.6 0.00 0.00 0.00 88 1012.9
20260506151034 15 192 24.1 38.6 0.00 0.00 0.00 88 1012.7
20260506150505 15 221 24.1 40.2 0.00 0.00 0.00 88 1012.8
20260506150053 15 218 25.7 40.2 0.00 0.00 0.00 88 1012.7
20260506145521 15 226 25.7 38.6 0.00 0.00 0.00 88 1012.6
20260506145043 15 227 25.7 38.6 0.00 0.00 0.00 88 1012.5
20260506144503 15 224 27.4 38.6 0.00 0.00 0.00 88 1012.8
20260506144035 15 235 24.1 37.0 0.00 0.00 0.00 88 1012.9
20260506143553 15 212 22.5 38.6 0.00 0.00 0.00 88 1012.9
20260506143019 15 243 20.9 38.6 0.00 0.00 0.00 88 1012.9
20260506142547 15 215 22.5 38.6 0.00 0.00 0.00 88 1013.2
20260506142031 15 221 24.1 38.6 0.00 0.00 0.00 88 1013.1
20260506141602 15 202 24.1 38.6 0.00 0.00 0.00 88 1013.2
20260506141011 14 229 22.5 33.8 0.00 0.00 0.00 89 1013.0
20260506140533 14 215 22.5 33.8 0.00 0.00 0.00 89 1013.1
20260506140002 14 211 22.5 40.2 0.00 0.00 0.00 89 1013.1
20260506135521 14 210 25.7 40.2 0.00 0.00 0.00 89 1013.1
20260506135010 14 219 24.1 38.6 0.00 0.00 0.00 89 1012.9
20260506134543 14 210 22.5 35.4 0.00 0.00 0.00 89 1012.9
20260506134011 14 212 24.1 35.4 0.00 0.00 0.00 89 1012.9
20260506133531 13 232 20.9 33.8 0.00 0.00 0.00 90 1012.9
20260506133052 13 212 22.5 33.8 0.00 0.00 0.00 90 1012.8
20260506132502 13 214 19.3 30.6 0.00 0.00 0.00 90 1012.8
20260506132050 13 236 19.3 30.6 0.00 0.00 0.00 90 1012.9
20260506131516 13 214 20.9 33.8 0.00 0.00 0.00 90 1012.9
20260506131035 13 226 20.9 32.2 0.00 0.00 0.00 90 1012.9